[[{"header":{"parameterUnit":"m.s-1","parameterCategory":1,"la1":30.2991,"la2":30.254,"lo1":-89.0895,"lo2":-89.0444,"dy":0.0017,"dx":0.0017,"nx":28,"ny":28,"refTime":"2023-10-07T03:00:00:Z","depth":0,"parameterNumber":2,"parameterNumberName":"U-component_of_WINDS"},"data":[0,0,0,0,0,0,0,0,0,0,0,0,0,0,0,0,0,0,0,0,0,0,0,0,0,0,0,0,0,0,0,0,0,0,0,0,0,0,0,0,0,0,0,0,0,0,0,0,0,0,0,0,0,0,0,0,0,0,0.3698,0.37,0,0.3864,0.3865,0.3867,0.3861,0.3859,0.3857,0.3855,0.4032,0.4039,0.4046,0,0,0,0,0,0,0,0,0,0,0,0,0,0.3386,0.3391,0.3698,0.37,0.3702,0.3863,0.3866,0.3868,0.3862,0.3859,0.3856,0.3853,0.403,0.4038,0.4046,0,0,0,0,0,0,0,0,0,0,0,0,0,0.3533,0.3393,0.3697,0.3718,0.3721,0.3863,0.3866,0.3868,0.3862,0.3859,0.3855,0.3852,0.4027,0.4037,0.4047,0.4181,0,0,0.4079,0.4084,0,0,0,0,0,0,0,0,0.3525,0.3545,0.3713,0.3717,0.3721,0.3838,0.3821,0.3974,0.3863,0.3809,0.3854,0.385,0.3971,0.3986,0.4025,0.419,0.4197,0.408,0.4086,0.4091,0.4094,0,0,0,0,0,0,0,0.3515,0.3538,0.3763,0.3715,0.372,0.3722,0.3739,0.385,0.3908,0.3814,0.3814,0.3833,0.3973,0.4015,0.4029,0.42,0.408,0.4089,0.4095,0.4099,0.4489,0.4493,0,0,0,0,0,0,0.3499,0.3529,0.3758,0.3768,0.3612,0.3731,0.375,0.3804,0.3907,0.3919,0.3836,0.3832,0.3999,0.4017,0.4035,0.4203,0.4091,0.41,0.4106,0.4485,0.449,0.4495,0,0,0,0,0,0,0.3492,0.3519,0.3752,0.3649,0.3679,0.374,0.3801,0.3809,0.3851,0.3923,0.3934,0.3867,0.3997,0.4021,0.4146,0.4209,0.4105,0.4114,0.448,0.4487,0.4492,0.4536,0,0,0,0,0,0,0.3483,0.3517,0.3566,0.365,0.3684,0.3857,0.3805,0.3815,0.3868,0.3865,0.3956,0.3968,0.3996,0.413,0.4156,0.4221,0.4123,0.4475,0.4483,0.449,0.453,0.4543,0.4555,0,0,0,0,0,0.3472,0.3572,0.3568,0.3596,0.3746,0.386,0.388,0.3908,0.3873,0.3925,0.3972,0.3965,0.4197,0.4143,0.4172,0.4241,0.4471,0.4481,0.449,0.4524,0.4541,0.4555,0,0,0,0,0,0,0.3495,0.3583,0.358,0.371,0.3777,0.3859,0.3925,0.3924,0.4004,0.3998,0.4032,0.4053,0.4179,0.4222,0.4161,0.4379,0.433,0.4346,0.4346,0.4363,0.4375,0.4364,0.4131,0,0,0,0,0,0.3515,0.3598,0.3671,0.3779,0.3812,0.3863,0.3913,0.3929,0.4002,0.4031,0.4087,0.416,0.425,0.4308,0.4394,0.4535,0.4558,0.4598,0.461,0.462,0.4634,0.4717,0.4737,0.4525,0.4525,0.4525,0,0,0.3558,0.3616,0.3666,0.3785,0.3839,0.3928,0.3887,0.3981,0.4048,0.4046,0.4168,0.4212,0.4296,0.4431,0.4493,0.4471,0.4698,0.4632,0.464,0.4649,0.4729,0.4749,0.4767,0.4532,0.4531,0.453,0,0,0.3682,0.3732,0.3829,0.3884,0.3967,0.4,0.4023,0.4106,0.4135,0.4257,0.4259,0.434,0.4493,0.4554,0.4605,0.4756,0.4755,0.4783,0.4851,0.4931,0.4948,0.4963,0.5022,0.5041,0.4796,0.4797,0.4797,0,0.3725,0.3855,0.388,0.3975,0.403,0.403,0.4132,0.4185,0.4292,0.4331,0.4304,0.4498,0.4555,0.4707,0.4744,0.4783,0.4815,0.4774,0.4943,0.4959,0.4973,0.5029,0.5051,0.48,0.4799,0.4799,0.4799,0,0.3907,0.3998,0.4067,0.4169,0.4231,0.4329,0.4373,0.4433,0.4444,0.4482,0.461,0.4677,0.4779,0.4816,0.4828,0.4971,0.4955,0.4935,0.4887,0.4996,0.505,0.5071,0.4804,0.4803,0.4802,0.4802,0,0,0.405,0.4166,0.4191,0.424,0.4332,0.4405,0.4505,0.4603,0.4656,0.4731,0.4819,0.4949,0.4933,0.4991,0.501,0.508,0.5201,0.5052,0.5055,0.5081,0.5369,0.5386,0.541,0.5199,0.5204,0.5207,0.5364,0,0.4186,0.4361,0.4388,0.4544,0.4631,0.4634,0.4722,0.479,0.4829,0.4911,0.4954,0.5048,0.5016,0.5052,0.5121,0.5171,0.526,0.516,0.5287,0.5291,0.5269,0.5438,0.5455,0.56,0.5384,0.5388,0.539,0,0.4368,0.4447,0.4611,0.4695,0.4733,0.4811,0.4906,0.4983,0.5062,0.5086,0.5152,0.5164,0.5273,0.5218,0.5371,0.5303,0.5356,0.5389,0.5395,0.5411,0.5349,0.5462,0.5646,0.5669,0.5423,0.542,0.5418,0,0.4462,0.4609,0.4727,0.4768,0.4868,0.4924,0.4969,0.5044,0.5103,0.5186,0.5226,0.5321,0.5375,0.5451,0.549,0.5445,0.5642,0.5589,0.5669,0.5668,0.5712,0.571,0.5912,0.574,0.574,0.574,0.5739,0,0.4613,0.4715,0.4771,0.4844,0.496,0.4991,0.5106,0.5149,0.5217,0.5303,0.5311,0.5391,0.5436,0.5524,0.5555,0.568,0.5703,0.5729,0.5737,0.573,0.5728,0.5768,0.5761,0.5745,0.5744,0.5743,0.5742,0,0.4738,0.4779,0.4909,0.4993,0.5017,0.5099,0.5173,0.5246,0.5284,0.5392,0.542,0.5481,0.5586,0.5631,0.576,0.5782,0.5926,0.5925,0.5899,0.5902,0.5981,0.5974,0.6219,0.6254,0.6056,0.6058,0.6059,0,0.4833,0.4911,0.5004,0.5061,0.5107,0.5197,0.5258,0.5293,0.5356,0.5454,0.5517,0.5621,0.5707,0.5875,0.5933,0.6034,0.6037,0.6116,0.6052,0.6045,0.6044,0.604,0.605,0.6129,0.6131,0.6132,0.6133,0,0.5,0.5017,0.5102,0.5195,0.5267,0.5342,0.5417,0.5463,0.5511,0.5582,0.5688,0.5754,0.5887,0.5992,0.6096,0.6146,0.6151,0.6153,0.6177,0.6173,0.6157,0.6171,0.5935,0.6148,0.6146,0.6145,0.6144,0.6144,0.5116,0.5187,0.5264,0.536,0.542,0.549,0.5564,0.5612,0.57,0.5809,0.5825,0.594,0.6022,0.6162,0.6217,0.631,0.6291,0.6325,0.6335,0.6344,0.6351,0.6139,0.6329,0.6328,0.6328,0.6328,0.6327,0,0.5287,0.5337,0.5424,0.5528,0.5605,0.5598,0.5681,0.5747,0.5847,0.5922,0.6006,0.6131,0.6234,0.6301,0.6406,0.6468,0.6473,0.6495,0.6493,0.6506,0.6359,0.6329,0.649,0.649,0.649,0.649,0.649,0.649,0.5385,0.5506,0.5533,0.5687,0.5737,0.5848,0.5897,0.5963,0.6024,0.6162,0.6247,0.6289,0.6363,0.6474,0.657,0.6587,0.6628,0.6652,0.6669,0.6532,0.6515,0.6499,0.6471,0.6659,0.6659,0.6808,0.6809,0.6811]},{"header":{"parameterUnit":"m.s-1","parameterCategory":1,"la1":30.2991,"la2":30.254,"lo1":-89.0895,"lo2":-89.0444,"dy":0.0017,"dx":0.0017,"nx":28,"ny":28,"refTime":"2023-10-07T03:00:00:Z","depth":0,"parameterNumber":3,"parameterNumberName":"V-component_of_WINDS"},"data":[0,0,0,0,0,0,0,0,0,0,0,0,0,0,0,0,0,0,0,0,0,0,0,0,0,0,0,0,0,0,0,0,0,0,0,0,0,0,0,0,0,0,0,0,0,0,0,0,0,0,0,0,0,0,0,0,0,0,-2.9911,-2.9909,0,-2.9727,-2.9725,-2.9723,-2.9687,-2.9689,-2.9691,-2.9692,-2.9485,-2.9478,-2.9472,0,0,0,0,0,0,0,0,0,0,0,0,0,-3.0215,-3.021,-2.9911,-2.9909,-2.9907,-2.9728,-2.9725,-2.9722,-2.9687,-2.9689,-2.9691,-2.9693,-2.9487,-2.9479,-2.9471,0,0,0,0,0,0,0,0,0,0,0,0,0,-3.0062,-3.0208,-2.9912,-2.9868,-2.9862,-2.9728,-2.9725,-2.9722,-2.9687,-2.9689,-2.9691,-2.9694,-2.949,-2.948,-2.947,-2.9361,0,0,-2.9438,-2.9434,0,0,0,0,0,0,0,0,-3.0071,-3.0051,-2.9877,-2.9871,-2.9864,-2.9733,-2.9756,-2.96,-2.9686,-2.9753,-2.9692,-2.9695,-2.9565,-2.9548,-2.9508,-2.9351,-2.9342,-2.9437,-2.9431,-2.9427,-2.9424,0,0,0,0,0,0,0,-3.0082,-3.0059,-2.9838,-2.9874,-2.9867,-2.9852,-2.9833,-2.9727,-2.9647,-2.9747,-2.9744,-2.9724,-2.9561,-2.9518,-2.9503,-2.9339,-2.9438,-2.9428,-2.9422,-2.9418,-2.908,-2.9077,0,0,0,0,0,0,-3.0102,-3.0068,-2.9844,-2.9832,-2.9976,-2.9845,-2.9823,-2.9772,-2.9649,-2.9633,-2.9722,-2.9723,-2.9535,-2.9515,-2.9496,-2.9357,-2.9427,-2.9417,-2.9411,-2.9083,-2.9079,-2.9076,0,0,0,0,0,0,-3.0109,-3.0083,-2.9851,-2.9949,-2.9919,-2.9837,-2.978,-2.9768,-2.9725,-2.963,-2.9614,-2.9694,-2.9536,-2.951,-2.9395,-2.935,-2.9412,-2.9403,-2.9086,-2.9082,-2.9078,-2.9081,0,0,0,0,0,0,-3.0118,-3.0086,-3.0047,-2.9949,-2.9914,-2.9759,-2.9778,-2.9762,-2.9709,-2.9708,-2.9599,-2.9583,-2.9536,-2.9411,-2.9385,-2.9336,-2.9395,-2.9089,-2.9084,-2.9079,-2.9085,-2.9078,-2.9072,0,0,0,0,0,-3.0129,-3.0051,-3.0045,-3.0018,-2.9865,-2.9756,-2.9736,-2.9688,-2.9706,-2.9663,-2.9603,-2.9586,-2.936,-2.9399,-2.937,-2.9317,-2.9092,-2.9085,-2.9079,-2.9087,-2.9079,-2.9072,0,0,0,0,0,0,-3.0139,-3.0038,-3.0029,-2.9919,-2.9848,-2.9751,-2.9696,-2.9681,-2.9597,-2.9599,-2.9538,-2.9514,-2.9401,-2.9348,-2.9394,-2.9204,-2.9226,-2.9214,-2.9243,-2.9234,-2.9227,-2.924,-2.9386,0,0,0,0,0,-3.013,-3.0056,-2.9969,-2.988,-2.9845,-2.9777,-2.9728,-2.9699,-2.9619,-2.9586,-2.9517,-2.9436,-2.9346,-2.9287,-2.92,-2.9079,-2.9051,-2.9028,-2.9021,-2.9017,-2.9005,-2.8933,-2.8921,-2.9056,-2.9056,-2.9056,0,0,-3.0107,-3.0043,-2.9998,-2.9881,-2.9821,-2.9741,-2.9751,-2.9665,-2.9603,-2.9571,-2.9459,-2.9406,-2.931,-2.9192,-2.9136,-2.9144,-2.8962,-2.9009,-2.9006,-2.8996,-2.8926,-2.8913,-2.8901,-2.9052,-2.9052,-2.9053,0,0,-3.0024,-2.997,-2.9889,-2.9832,-2.9745,-2.97,-2.9681,-2.9587,-2.9552,-2.9441,-2.9415,-2.9337,-2.9185,-2.9118,-2.9064,-2.8958,-2.8938,-2.8931,-2.8895,-2.8826,-2.8815,-2.8806,-2.8764,-2.875,-2.8921,-2.8921,-2.8921,0,-3.0004,-2.9888,-2.9848,-2.9764,-2.9711,-2.9686,-2.96,-2.9544,-2.943,-2.9391,-2.9404,-2.9213,-2.9147,-2.9011,-2.8986,-2.8944,-2.8915,-2.8941,-2.8822,-2.8811,-2.8801,-2.876,-2.8745,-2.892,-2.892,-2.892,-2.892,0,-2.9866,-2.9786,-2.973,-2.9628,-2.9568,-2.9484,-2.9426,-2.937,-2.9347,-2.9299,-2.9184,-2.9105,-2.9001,-2.8967,-2.894,-2.8826,-2.8833,-2.8835,-2.8855,-2.8788,-2.8749,-2.8733,-2.8919,-2.892,-2.892,-2.892,0,0,-2.9779,-2.966,-2.9639,-2.9592,-2.9496,-2.9429,-2.9342,-2.9247,-2.9198,-2.9121,-2.9042,-2.8916,-2.8917,-2.8856,-2.8822,-2.8762,-2.8679,-2.877,-2.8767,-2.8752,-2.8543,-2.854,-2.8523,-2.8668,-2.8665,-2.8663,-2.855,0,-2.9681,-2.9532,-2.9494,-2.9363,-2.9286,-2.9263,-2.9186,-2.9115,-2.907,-2.8993,-2.894,-2.885,-2.8861,-2.8823,-2.8764,-2.8702,-2.8636,-2.871,-2.8588,-2.8584,-2.8608,-2.8503,-2.8498,-2.8396,-2.8535,-2.8532,-2.853,0,-2.9545,-2.9472,-2.9336,-2.9251,-2.9216,-2.9149,-2.9057,-2.8987,-2.8905,-2.8875,-2.8809,-2.8781,-2.8684,-2.8715,-2.8576,-2.8628,-2.8576,-2.8539,-2.8533,-2.8515,-2.855,-2.8477,-2.8362,-2.8345,-2.8506,-2.8508,-2.851,0,-2.949,-2.9358,-2.9259,-2.922,-2.9118,-2.9071,-2.9025,-2.8946,-2.8891,-2.881,-2.8772,-2.8679,-2.8626,-2.8552,-2.8497,-2.8525,-2.8362,-2.8389,-2.8329,-2.833,-2.8291,-2.8293,-2.8161,-2.8267,-2.8267,-2.8267,-2.8268,0,-2.9382,-2.9298,-2.9233,-2.9171,-2.9076,-2.9033,-2.8937,-2.8889,-2.882,-2.8745,-2.8718,-2.8646,-2.8582,-2.85,-2.8457,-2.8347,-2.8324,-2.8293,-2.8281,-2.8292,-2.8296,-2.8253,-2.8257,-2.8263,-2.8264,-2.8265,-2.8266,0,-2.9301,-2.9256,-2.9146,-2.9061,-2.9038,-2.8971,-2.8895,-2.8831,-2.8787,-2.8692,-2.8667,-2.8594,-2.8497,-2.8438,-2.8312,-2.8283,-2.816,-2.8154,-2.819,-2.8183,-2.8126,-2.813,-2.7957,-2.793,-2.8059,-2.8058,-2.8057,0,-2.9233,-2.9169,-2.908,-2.9031,-2.8986,-2.8907,-2.8852,-2.8807,-2.8749,-2.8653,-2.86,-2.8503,-2.8422,-2.8266,-2.8198,-2.8102,-2.8089,-2.8036,-2.8074,-2.8087,-2.8083,-2.8085,-2.8076,-2.8027,-2.8026,-2.8025,-2.8024,0,-2.9114,-2.9096,-2.9021,-2.8939,-2.8876,-2.8807,-2.8738,-2.8698,-2.864,-2.8576,-2.848,-2.8418,-2.8294,-2.8195,-2.8093,-2.8039,-2.8019,-2.8015,-2.7994,-2.8002,-2.8024,-2.8007,-2.8167,-2.8017,-2.8017,-2.8018,-2.8018,-2.8019,-2.9034,-2.8976,-2.8904,-2.8822,-2.8767,-2.8704,-2.864,-2.8591,-2.8512,-2.8411,-2.8388,-2.8286,-2.8203,-2.8067,-2.8011,-2.7926,-2.7933,-2.7906,-2.7898,-2.789,-2.7887,-2.8043,-2.7908,-2.7908,-2.7908,-2.7908,-2.7908,0,-2.891,-2.8865,-2.879,-2.8697,-2.8631,-2.8629,-2.8552,-2.8495,-2.8407,-2.8336,-2.826,-2.8147,-2.8052,-2.798,-2.7881,-2.7827,-2.7815,-2.7801,-2.7802,-2.7789,-2.7888,-2.7913,-2.7813,-2.7813,-2.7813,-2.7813,-2.7813,-2.7813,-2.8837,-2.8738,-2.8711,-2.8583,-2.8536,-2.8441,-2.8397,-2.8337,-2.828,-2.8158,-2.8082,-2.8038,-2.7964,-2.7861,-2.7771,-2.7752,-2.7714,-2.7702,-2.7679,-2.7772,-2.7782,-2.7792,-2.7815,-2.7695,-2.7695,-2.7586,-2.7586,-2.7585]}]]